Location: Azat
(46.0765°N, 1.7600°E)
Time: 14:55:01
(UTC+00:00)

Cosmos 1726 Rocket - Pass Details

Date: 09 April 2020
Orbit: 602 x 631 km, 82.5° (Epoch: 27 May)

Event Time Altitude Azimuth Distance (km) Brightness Sun altitude
Rises 18:55:10 0° 168° (SSE) 2,884 6.7 -4.6°
Reaches altitude 10° 18:57:29 10° 160° (SSE) 1,987 5.8 -5.0°
Maximum altitude 19:01:35 39° 92° (E) 936 4.1 -5.7°
Drops below altitude 10° 19:05:45 10° 23° (NNE) 2,016 6.2 -6.4°
Sets 19:08:06 0° 16° (NNE) 2,931 7.1 -6.7°
